Home   Weather   Tábor   Past weeks

Flag for Czech Republic Past Weather in Tábor, Czech Republic — Yesterday and Last 2 Weeks

Now
70 °F

Mild.


Feels Like: 75 °F
Forecast: 58 / 65 °F
Wind: 7 mph from Northwest

Location: Kocelovice

Current Time: Aug 19, 2017 at 12:05:29 am

Latest Report: Aug 18, 2017 at 11:00 pm


Visibility: 13 mi

Pressure: 29.86 "Hg

Humidity: 65%

Dew Point: 58 °F

Location of TáborLocation

Past Weather in Tábor — Graph

°F

Tábor Temperature Yesterday

Maximum temperature yesterday: 85 °F (at 6:00 pm)
Minimum temperature yesterday: 62 °F (at 5:00 am)
Average temperature yesterday: 74 °F

High & Low Weather Summary for the Past Weeks

 TemperatureHumidityPressure
High85 °F (Aug 18, 6:00 pm)100% (Aug 14, 4:00 am)30.24 "Hg (Aug 14, 4:00 am)
Low52 °F (Aug 8, 6:00 am)31% (Aug 7, 2:00 pm)29.78 "Hg (Aug 18, 9:00 pm)
Average67 °F71%30.03 "Hg
* Reported Aug 3 10:00 pm — Aug 18 10:00 pm, Tábor. Weather by CustomWeather, © 2017

Note: Actual official high and low records may vary slightly from our data, if they occured in-between our weather recording intervals... More about our weather records

Advertising

Tábor Weather History for the Previous 24 Hours

Scroll right to see more
 ConditionsComfort  
Time TempWeatherWind HumidityBarometerVisibility
10:00 pm
Fri, Aug 18
75 °FOvercast.3 mph58%29.78 "Hg43 mi
9:00 pm76 °FPassing clouds.6 mph54%29.78 "Hg43 mi
8:00 pm81 °FScattered clouds.N/A45%29.79 "Hg43 mi
7:00 pm84 °FScattered clouds.N/A41%29.80 "Hg43 mi
6:00 pm85 °FScattered clouds.5 mph37%29.81 "Hg43 mi
5:00 pm84 °FScattered clouds.3 mph41%29.85 "Hg43 mi
4:00 pm85 °FPartly sunny.5 mph39%29.87 "Hg40 mi
3:00 pm84 °FOvercast.5 mph49%29.88 "Hg37 mi
2:00 pm83 °FOvercast.3 mph50%29.91 "Hg31 mi
1:00 pm82 °FOvercast.5 mph53%29.93 "Hg28 mi
12:00 pm79 °FOvercast.5 mph57%29.96 "Hg25 mi
11:00 am76 °FPartly sunny.5 mph59%30.00 "Hg25 mi
10:00 am73 °FOvercast.5 mph69%30.02 "Hg25 mi
9:00 am70 °FOvercast.2 mph77%30.03 "Hg28 mi
8:00 am67 °FPartly sunny.N/A86%30.05 "Hg25 mi
7:00 am62 °FCool.2 mph95%30.07 "Hg12 mi
6:00 am64 °FMild.1 mph87%30.04 "Hg12 mi
5:00 am62 °FCool.N/A92%30.06 "Hg12 mi
4:00 am63 °FMild.1 mph90%30.06 "Hg12 mi
3:00 am62 °FCool.No wind94%30.06 "Hg12 mi
2:00 am62 °FCool.N/A92%30.06 "Hg12 mi
1:00 am65 °FMild.1 mph83%30.06 "Hg12 mi
12:00 am67 °FMild.N/A78%30.05 "Hg12 mi
Weather by CustomWeather, © 2017

See weather overviewHow to use our weather pages